Content
SEND FEEDBACK

Daily
Averages
Monthly
Summary
Canada

QUEBEC CITY, QUEBEC


Home > North America > Canada > Quebec
Elevation: 239 feet     Latitude: 46 48N     Longitude: 071 23W

WEATHER
 
SELECT A DAY
Number of Records: 198,020;   Date Range: 6/30/96 - 12/17/14
 
SHARE

PRINT THIS DATA

[ ← Previous Day ]
WEATHER ALMANAC - JULY 16, 2013
[ Next Day → ]
[ °C ]   °F
Weather ElementAverageHighLow
Temperature79.6 °F87.8 °F (4:00 pm)67 °F (11:00 pm)
Dewpoint61.4 °F66 °F (11:00 am)57.2 °F (10:00 pm)
Humidity52.7 %77 % (11:00 pm)33 % (5:00 pm)
Barometer30.16 in30.20 in (9:00 am)30.11 in (5:00 pm)
Wind Speed6.4 mph10.4 mph (2:00 am)
Weather ElementAverage
Visibility23.9 mi
Wind DirectionSSE (146.8 °)

Weather ElementTotal
Precipitation---
Cooling Degree Days12.4 (Base 65)
Growing Degree Days27.4 (Base 50)
Averaged from 31 records on July 16, 2013
WEATHER CONDITIONS BREAKOUT
WIND DIRECTION BREAKOUT
WEATHER BY HOUR - JULY 16, 2013
[ °C ]   °F
Local TimeTemperatureDewpointHumidityBarometerVisibilityWind DirectionWind SpeedGust SpeedPrecipitationEventsConditions
1:00 AM77.0 °F64.4 °F65 %30.14 in15.0 miNorth (350°)5.8 mphMostly Cloudy
2:00 AM77.0 °F64.0 °F55 %30.13 inNNW (330°)5.8 mph
2:00 AM77.0 °F64.4 °F65 %30.14 in15.0 miNNW (330°)10.4 mphMostly Cloudy
3:00 AM75.2 °F64.4 °F69 %30.14 in15.0 miNNW (330°)6.9 mphOvercast
4:00 AM75.2 °F62.6 °F65 %30.14 in15.0 miNNW (330°)6.9 mphOvercast
5:00 AM74.0 °F64.0 °F62 %30.14 inNNE (20°)2.3 mph
5:00 AM75.2 °F62.6 °F65 %30.16 in20.0 miNNE (20°)4.6 mphMostly Cloudy
6:00 AM73.4 °F62.6 °F69 %30.16 in30.0 miNW (320°)5.8 mphMostly Cloudy
7:00 AM75.2 °F64.4 °F69 %30.18 in25.0 miNNW (340°)5.8 mphPartly Cloudy
8:00 AM78.0 °F63.0 °F50 %30.17 inNorth5.8 mph
8:00 AM78.8 °F62.6 °F57 %30.19 in25.0 miNorth (360°)6.9 mphPartly Cloudy
9:00 AM82.4 °F60.8 °F48 %30.20 in25.0 miNE (40°)4.6 mphPartly Cloudy
10:00 AM82.4 °F60.8 °F48 %30.20 in25.0 miENE (60°)5.8 mphPartly Cloudy
11:00 AM84.0 °F66.0 °F44 %30.18 inSE (130°)8.1 mph
11:00 AM84.2 °F62.6 °F48 %30.20 in25.0 miESE (120°)5.8 mphPartly Cloudy
12:00 PM84.2 °F60.8 °F45 %30.20 in25.0 miENE (70°)8.1 mphPartly Cloudy
1:00 PM84.2 °F60.8 °F45 %30.18 in25.0 miESE (110°)5.8 mphPartly Cloudy
2:00 PM84.0 °F61.0 °F36 %30.14 inEast (100°)8.1 mph
2:00 PM86.0 °F59.0 °F40 %30.17 in30.0 miEast (80°)8.1 mphPartly Cloudy
3:00 PM86.0 °F59.0 °F40 %30.16 in30.0 miENE (70°)8.1 mphPartly Cloudy
4:00 PM87.8 °F59.0 °F38 %30.14 in30.0 miESE (110°)8.1 mphPartly Cloudy
5:00 PM85.0 °F60.0 °F33 %30.11 inEast (90°)8.1 mph
5:00 PM87.8 °F59.0 °F38 %30.13 in30.0 miEast (90°)8.1 mphPartly Cloudy
6:00 PM86.0 °F60.8 °F43 %30.13 in30.0 miENE (60°)5.8 mphPartly Cloudy
7:00 PM82.4 °F60.8 °F48 %30.13 in30.0 miEast (90°)8.1 mphPartly Cloudy
8:00 PM78.0 °F60.0 °F45 %30.12 inEast (80°)3.5 mph
8:00 PM80.6 °F59.0 °F48 %30.14 in30.0 miEast (80°)5.8 mphScattered Clouds
9:00 PM75.2 °F59.0 °F57 %30.14 in25.0 miENE (70°)5.8 mphScattered Clouds
10:00 PM73.4 °F57.2 °F57 %30.16 in15.0 miNE (50°)8.1 mphPartly Cloudy
11:00 PM67.0 °F61.0 °F77 %30.14 inWest (280°)4.5 mph
11:00 PM71.6 °F59.0 °F64 %30.16 in15.0 miNE (40°)3.5 mphPartly Cloudy
Hourly data recorded from CYQB, located miles away from Quebec City, Quebec







STORIES FROM OUR PARTNERS